TimeCDT,TemperatureF,Dew PointF,Humidity,Sea Level PressureIn,VisibilityMPH,Wind Direction,Wind SpeedMPH,Gust SpeedMPH,PrecipitationIn,Events,Conditions,WindDirDegrees,DateUTC
12:15 AM,74.5,71.6,91,29.98,10.0,Calm,Calm,-,N/A,,Clear,0,2013-07-09 05:15:00
12:35 AM,74.3,71.1,90,29.98,10.0,Calm,Calm,-,N/A,,Clear,0,2013-07-09 05:35:00
12:55 AM,73.9,70.9,90,29.96,10.0,ESE,3.5,-,N/A,,Clear,120,2013-07-09 05:55:00
1:15 AM,73.8,70.9,91,29.96,10.0,ESE,3.5,-,N/A,,Clear,110,2013-07-09 06:15:00
1:35 AM,73.9,70.7,90,29.96,10.0,ESE,3.5,-,N/A,,Clear,120,2013-07-09 06:35:00
1:55 AM,72.9,70.7,93,29.97,7.0,SE,4.6,-,N/A,,Clear,130,2013-07-09 06:55:00
2:15 AM,72.7,70.7,93,29.98,7.0,Calm,Calm,-,N/A,,Clear,0,2013-07-09 07:15:00
2:35 AM,72.9,70.7,93,29.98,10.0,SSE,3.5,-,N/A,,Clear,150,2013-07-09 07:35:00
2:55 AM,74.3,71.2,90,29.98,10.0,SSE,3.5,-,N/A,,Clear,150,2013-07-09 07:55:00
3:15 AM,73.8,70.9,91,29.96,10.0,SE,3.5,-,N/A,,Clear,140,2013-07-09 08:15:00
3:35 AM,74.3,71.1,90,29.95,10.0,SSE,5.8,-,N/A,,Clear,150,2013-07-09 08:35:00
3:55 AM,73.6,70.7,91,29.95,10.0,SE,3.5,-,N/A,,Clear,140,2013-07-09 08:55:00
4:15 AM,73.6,70.7,91,29.95,10.0,SE,4.6,-,N/A,,Clear,140,2013-07-09 09:15:00
4:35 AM,73.6,70.9,91,29.95,7.0,SSE,4.6,-,N/A,,Scattered Clouds,150,2013-07-09 09:35:00
4:55 AM,74.3,70.7,88,29.95,10.0,SSE,5.8,-,N/A,,Clear,150,2013-07-09 09:55:00
5:15 AM,73.9,70.3,88,29.95,10.0,SSE,4.6,-,N/A,,Clear,150,2013-07-09 10:15:00
5:35 AM,74.3,70.5,88,29.96,10.0,South,4.6,-,N/A,,Scattered Clouds,170,2013-07-09 10:35:00
5:55 AM,74.3,70.7,88,29.97,10.0,SW,4.6,-,N/A,,Scattered Clouds,220,2013-07-09 10:55:00
6:15 AM,76.1,69.6,80,29.98,10.0,WSW,19.6,25.3,N/A,,Scattered Clouds,240,2013-07-09 11:15:00
6:35 AM,73.9,70.7,90,29.98,7.0,SW,6.9,17.3,N/A,Rain,Light Rain,230,2013-07-09 11:35:00
6:55 AM,73.4,71.1,92,29.97,7.0,SW,3.5,-,0.01,Rain,Light Rain,220,2013-07-09 11:55:00
7:15 AM,73.2,71.1,93,29.97,7.0,Calm,Calm,-,N/A,Rain,Light Rain,0,2013-07-09 12:15:00
7:35 AM,74.3,71.1,90,29.96,10.0,SSW,5.8,-,N/A,Rain,Light Rain,200,2013-07-09 12:35:00
7:55 AM,73.8,71.1,91,29.96,10.0,South,5.8,-,N/A,Rain,Light Rain,190,2013-07-09 12:55:00
8:15 AM,73.8,71.2,92,29.95,10.0,SSE,4.6,-,N/A,Rain,Light Rain,160,2013-07-09 13:15:00
8:35 AM,73.9,71.6,92,29.95,10.0,South,4.6,-,N/A,Rain,Light Rain,170,2013-07-09 13:35:00
8:55 AM,74.3,71.6,91,29.94,10.0,ESE,3.5,-,N/A,,Clear,110,2013-07-09 13:55:00
9:15 AM,75.4,72.3,90,29.94,10.0,SSE,5.8,-,N/A,,Clear,150,2013-07-09 14:15:00
9:35 AM,75.6,71.8,88,29.96,10.0,South,4.6,-,N/A,,Clear,180,2013-07-09 14:35:00
9:55 AM,75.0,72.0,90,30.00,10.0,WNW,10.4,-,N/A,,Clear,290,2013-07-09 14:55:00
10:15 AM,76.1,72.9,90,30.01,10.0,WNW,4.6,-,N/A,,Scattered Clouds,290,2013-07-09 15:15:00
10:35 AM,77.5,72.7,85,30.00,10.0,Calm,Calm,-,N/A,,Clear,0,2013-07-09 15:35:00
10:55 AM,78.6,71.6,79,30.00,10.0,SW,5.8,-,N/A,,Clear,230,2013-07-09 15:55:00
11:15 AM,79.7,72.3,78,29.99,10.0,SSW,4.6,-,N/A,,Clear,210,2013-07-09 16:15:00
11:35 AM,79.9,72.1,77,29.95,10.0,SE,5.8,-,N/A,,Clear,140,2013-07-09 16:35:00
11:55 AM,79.2,72.5,80,29.94,10.0,SSE,8.1,-,0.01,,Clear,150,2013-07-09 16:55:00
12:15 PM,78.3,72.0,81,29.94,10.0,South,11.5,-,N/A,,Clear,170,2013-07-09 17:15:00
12:35 PM,82.6,73.0,73,29.94,10.0,South,12.7,17.3,N/A,,Clear,170,2013-07-09 17:35:00
12:55 PM,84.4,72.0,66,29.94,10.0,South,12.7,17.3,N/A,,Clear,180,2013-07-09 17:55:00
1:06 PM,84.2,71.6,66,29.94,10.0,SSW,9.2,-,N/A,,Clear,200,2013-07-09 18:06:00
1:15 PM,84.9,72.9,67,29.94,10.0,SSW,9.2,-,N/A,,Clear,200,2013-07-09 18:15:00
1:26 PM,84.2,73.4,70,29.93,10.0,South,6.9,-,N/A,,Clear,180,2013-07-09 18:26:00
1:35 PM,85.5,73.4,67,29.93,10.0,South,8.1,-,N/A,,Clear,170,2013-07-09 18:35:00
1:55 PM,87.1,73.8,64,29.92,10.0,South,10.4,-,N/A,,Clear,190,2013-07-09 18:55:00
2:15 PM,87.4,73.4,63,29.91,10.0,South,8.1,-,N/A,,Clear,180,2013-07-09 19:15:00
2:35 PM,88.5,73.0,60,29.91,10.0,South,10.4,16.1,N/A,,Clear,190,2013-07-09 19:35:00
2:55 PM,89.1,73.4,60,29.91,10.0,SSW,9.2,-,N/A,,Clear,200,2013-07-09 19:55:00
3:15 PM,89.6,74.5,61,29.91,10.0,SSW,9.2,-,N/A,,Clear,200,2013-07-09 20:15:00
3:35 PM,89.6,74.3,61,29.91,10.0,SSW,8.1,-,N/A,,Scattered Clouds,200,2013-07-09 20:35:00
3:55 PM,89.2,73.6,60,29.91,10.0,SW,8.1,-,N/A,,Scattered Clouds,230,2013-07-09 20:55:00
4:15 PM,90.9,74.8,59,29.91,10.0,West,6.9,-,N/A,,Scattered Clouds,260,2013-07-09 21:15:00
4:35 PM,90.3,74.3,59,29.90,10.0,WSW,5.8,-,N/A,,Scattered Clouds,240,2013-07-09 21:35:00
4:55 PM,90.3,74.7,60,29.90,10.0,West,4.6,-,N/A,,Scattered Clouds,260,2013-07-09 21:55:00
5:15 PM,91.0,75.0,59,29.90,10.0,West,8.1,-,N/A,,Clear,270,2013-07-09 22:15:00
5:35 PM,90.5,74.8,60,29.89,10.0,WSW,4.6,-,N/A,,Clear,250,2013-07-09 22:35:00
5:55 PM,90.9,75.0,60,29.89,10.0,West,5.8,-,N/A,,Clear,270,2013-07-09 22:55:00
6:15 PM,90.5,74.5,59,29.89,10.0,WSW,4.6,-,N/A,,Clear,250,2013-07-09 23:15:00
6:35 PM,90.0,74.7,61,29.89,10.0,West,4.6,-,N/A,,Clear,270,2013-07-09 23:35:00
6:55 PM,89.6,74.7,61,29.89,10.0,West,4.6,-,N/A,,Clear,280,2013-07-09 23:55:00
7:15 PM,89.1,75.6,64,29.89,10.0,West,3.5,-,N/A,,Clear,260,2013-07-10 00:15:00
7:35 PM,88.2,75.6,66,29.89,10.0,Calm,Calm,-,N/A,,Clear,0,2013-07-10 00:35:00
7:55 PM,86.9,75.7,69,29.89,10.0,Calm,Calm,-,N/A,,Clear,0,2013-07-10 00:55:00
8:15 PM,85.1,76.1,74,29.89,10.0,Calm,Calm,-,N/A,,Clear,0,2013-07-10 01:15:00
8:35 PM,82.6,75.7,80,29.89,10.0,Calm,Calm,-,N/A,,Clear,0,2013-07-10 01:35:00
8:55 PM,81.1,75.6,83,29.89,10.0,Calm,Calm,-,N/A,,Clear,0,2013-07-10 01:55:00
9:15 PM,82.4,74.8,78,29.89,10.0,Calm,Calm,-,N/A,,Clear,0,2013-07-10 02:15:00
9:35 PM,80.8,74.3,81,29.90,10.0,Calm,Calm,-,N/A,,Clear,0,2013-07-10 02:35:00
9:55 PM,79.9,74.3,83,29.91,10.0,Calm,Calm,-,N/A,,Clear,0,2013-07-10 02:55:00
10:15 PM,79.2,75.0,87,29.91,10.0,Calm,Calm,-,N/A,,Clear,0,2013-07-10 03:15:00
10:35 PM,78.8,75.2,89,29.90,10.0,West,3.5,-,N/A,,Clear,280,2013-07-10 03:35:00
10:55 PM,78.8,74.3,86,29.90,10.0,Calm,Calm,-,N/A,,Clear,0,2013-07-10 03:55:00
11:15 PM,78.8,73.8,84,29.90,10.0,Calm,Calm,-,N/A,,Clear,0,2013-07-10 04:15:00
11:35 PM,78.1,74.3,88,29.90,10.0,Calm,Calm,-,N/A,,Clear,0,2013-07-10 04:35:00
11:55 PM,77.0,73.8,90,29.91,10.0,Calm,Calm,-,N/A,,Clear,0,2013-07-10 04:55:00